Regional Weather Roundup
Issued by NWS

Home | Current Version | Previous Version | Graphics & Text | Print | Product List | Glossary Off
Versions: 1 2 3 4 5 6 7 8 9 10 11 12 13 14 15 16 17 18 19 20 21 22 23 24 25 26 27 28 29 30 31 32 33 34 35 36 37 38 39 40 41 42 43 44 45 46 47 48 49 50

000
ASUS43 KLOT 261309
RWRIL

ILLINOIS REGIONAL WEATHER ROUNDUP
NATIONAL WEATHER SERVICE CHICAGO/ROMEOVILLE IL
800 AM CDT TUE SEP 26 2017

NOTE: "FAIR" INDICATES FEW OR NO CLOUDS BELOW 12,000 FEET WITH NO
SIGNIFICANT WEATHER AND/OR OBSTRUCTIONS TO VISIBILITY.

* THESE STATIONS ARE NOT UNDER NWS QUALITY CONTROL. THEY ALSO MAY NOT
  REPORT WEATHER SUCH AS PRECIPITATION OR FOG.

ILZ001-002-007-009-015-016-024-261400-
NORTHWEST ILLINOIS

CITY           SKY/WX    TMP DP  RH WIND       PRES   REMARKS
MOLINE         CLOUDY    70  66  87 E3        29.93R
STERLING*      PTSUNNY   69  63  81 VRB3      29.94S
SAVANNA*       CLOUDY    68  65  89 CALM      29.94R
$$

ILZ003-004-008-010-011-017-018-261400-
NORTH CENTRAL ILLINOIS

CITY           SKY/WX    TMP DP  RH WIND       PRES   REMARKS
ROCKFORD       PTSUNNY   67  61  81 S3        29.95R
FREEPORT*      CLOUDY    66  64  91 CALM      29.96S
ROCHELLE*      CLOUDY    65  61  85 CALM      29.95S
DE KALB*       MOSUNNY   68  62  80 SE5       29.97R
PERU*          CLOUDY    68  62  79 S5        29.96S
$$

ILZ005-006-012>014-019>023-261400-
NORTHEAST ILLINOIS

CITY           SKY/WX    TMP DP  RH WIND       PRES   REMARKS
CHICAGO-OHARE  PTSUNNY   72  61  68 S3        29.95S
CHICAGO-MIDWAY MOSUNNY   74  61  63 SW7       29.96R
AURORA         MOSUNNY   68  63  84 CALM      29.96S
LANSING*       CLOUDY    68  64  86 SW5       29.97S
JOLIET*        MOSUNNY   69  66  88 CALM      29.97S
WAUKEGAN       MOSUNNY   67  64  90 CALM      29.94S
DUPAGE AIRPORT MOSUNNY   69  63  81 S5        29.95S
KANKAKEE*      PTSUNNY   66  63  89 CALM      29.99R
WHEELING       MOSUNNY   70  64  81 CALM      29.96S
MORRIS*        MOSUNNY   68  64  85 S3        29.95F
ROMEOVILLE*    MOSUNNY   68  62  81 S5        29.97S
NORTHERLY ISL    N/A     74  60  61 SW5         N/A
$$

LMZ740>746-261400-
SOUTHERN LAKE MICHIGAN

STATION/POSITION SKY/WX   TEMP    WIND        PRES    VSBY  WAVE
                          AIR SEA DIR/SP/G                  HT/PER
                          (F)     (DEG/KT/KT) (MB)    (MI)  (FT/S)
SOUTHERN BUOY              72 71  200/  6/  8 1013.8          0
WILMETTE HARBOR            71 71  350/  2/  4   N/A           1
HARRISON CRIB              76     200/ 13/ 14   N/A
BURNHAM HARBOR             74                   N/A
CALUMET HARBOR             72     210/  4/  7 1014.0R
BURNS HARBOR               73     180/  6/ 10 1015.2S
MICHIGAN CITY              73     170/  6/  7   N/A
MICHIGAN CITY 6N           73 71  210/  6/  8   N/A           1
ST. JOSEPH                 71 71  190/  8/  8 1014.6          1
$$

ILZ025>027-034>036-040-047-049-050-058-095>099-261400-
WEST-CENTRAL ILLINOIS

CITY           SKY/WX    TMP DP  RH WIND       PRES   REMARKS
QUINCY         MOSUNNY   72  63  73 S7        29.95S
GALESBURG*     CLOUDY    68  64  86 SE3       29.96S
MACOMB*        CLOUDY    67  65  91 S3        29.98R
JACKSONVILLE*  SUNNY     73  62  69 S6        29.98R
PITTSFIELD*    SUNNY     72  64  76 S5        29.99R
$$

ILZ028>032-037-038-041>044-048-051>054-059>061-261400-
CENTRAL ILLINOIS

CITY           SKY/WX    TMP DP  RH WIND       PRES   REMARKS
PONTIAC        MOSUNNY   71  67  87 CALM      29.98S
BLOOMINGTON    CLOUDY    70  63  78 S5        30.00R
DECATUR        SUNNY     69  63  81 CALM      29.99S
PEORIA         SUNNY     72  64  76 S5        29.97R
LACON*         MOSUNNY   69  64  83 S3        29.96R
LINCOLN*       SUNNY     71  64  81 CALM      29.98R
SPRINGFIELD    SUNNY     74  64  71 SW3       29.98R
TAYLORVILLE    SUNNY     70  63  78 S3        30.00R
$$

ILZ033-039-045-046-055>057-062-063-261400-
EAST-CENTRAL ILLINOIS

CITY           SKY/WX    TMP DP  RH WIND       PRES   REMARKS
CHAMPAIGN      MOSUNNY   70  63  78 CALM      30.00R
RANTOUL*       CLOUDY    69  64  86 S3        29.99S
MATTOON        SUNNY     70  65  84 S6        30.00R
PARIS*         MOSUNNY   69  66  92 SE3       30.02S
$$

ILZ079-100>102-261400-
SOUTHWEST ILLINOIS

CITY           SKY/WX    TMP DP  RH WIND       PRES   REMARKS
ALTON          MOSUNNY   66  64  94 CALM      30.00R
BELLEVILLE     SUNNY     66  64  92 S3        29.98S
CAHOKIA*       SUNNY     69  64  84 CALM      29.99R
SPARTA*        SUNNY     68  64  86 CALM      30.01R
$$

ILZ064>066-069>071-074>076-080>082-084>086-088>090-092>094-261400-
SOUTH-CENTRAL ILLINOIS

CITY           SKY/WX    TMP DP  RH WIND       PRES   REMARKS
CARBONDALE     SUNNY     66  66 100 CALM      30.00R FOG
CAIRO*         SUNNY     65  65 100 CALM      30.01R FOG
EFFINGHAM*     SUNNY     69  66  90 CALM      30.02R
MARION         SUNNY     68  66  94 MISG      30.02R
MT. VERNON       N/A     66  65  96 CALM      30.01R
CENTRALIA*     MOSUNNY   68  66  91 CALM      30.00R
SALEM*         SUNNY     69  65  86 CALM      30.01R
METROPOLIS*    RAIN      67  65  96 CALM      30.01S
$$

ILZ067-068-072-073-078-083-087-091-261400-
SOUTHEAST ILLINOIS

CITY           SKY/WX    TMP DP  RH WIND       PRES   REMARKS
LAWRENCEVILLE  SUNNY     70  68  93 CALM      30.02R FOG
FLORA*         SUNNY     69  66  92 CALM      30.01S
FAIRFIELD*     SUNNY     68  65  89 CALM      30.01R
HARRISBURG*    SUNNY     67  65  94 CALM      30.02R
ROBINSON*      SUNNY     66  65  96 CALM      30.03R FOG
CARMI*         MOSUNNY   67  67 100 CALM      30.01R FOG
$$

ABBREVIATIONS USED IN REMARKS
   TC - TEMPERATURE IN CELSIUS
  WCI - WIND CHILL INDEX
   HX - HEAT INDEX
  VSB - VISIBILITY
$$





USA.gov is the U.S. government's official web portal to all federal, state and local government web resources and services.